Murray, KY

10:26 PM CST on January 19, 2018 (GMT -0600)
Kyle-Oakley

Weather History for KCEY - December, 2012

Change the Weather History Date:

Sunday, December 2, 2012

  Actual Average (KPAH) Record (KPAH)
Temperature  
Mean Temperature 62 °F -  
Max Temperature 64 °F 51 °F 77 °F (1982)
Min Temperature 59 °F 32 °F 15 °F (1944)
Degree Days  
Heating Degree Days 4    
Growing Degree Days 12 (Base 50)    
Moisture  
Dew Point 56 °F    
Average Humidity 80    
Maximum Humidity 88    
Minimum Humidity 72    
Precipitation  
Precipitation 0.00 in - - ()
Sea Level Pressure  
Sea Level Pressure 30.14 in    
Wind  
Wind Speed 11 mph (SSW)    
Max Wind Speed 20 mph    
Max Gust Speed 26 mph    
Visibility 10 miles    
Events      
Averages and records for this station are not official NWS values.
T = Trace of Precipitation, MM = Missing Value Source: NWS Daily Summary

Daily Weather History Graph

Daily Weather History Graph

Search for Another Location

Airport or City:

Trip Planner

Search our weather history database for the weather conditions in past years. The results will help you decide how hot, cold, wet, or windy it might be!

Date:

Astronomy

Dec. 02, 2012 Rise Set
Actual Time 6:48 AM CST 4:37 PM CST
Civil Twilight 6:20 AM CST 5:06 PM CST
Nautical Twilight 5:48 AM CST 5:38 PM CST
Astronomical Twilight 5:16 AM CST 6:09 PM CST
Moon 8:22 PM CST (12/2) 9:40 AM CST (12/2)
Length of Visible Light 10h 45m
Length of Day
9h 48m
Waning Gibbous, 85% of the Moon is Illuminated
Dec 2
Waning Gibbous
Dec 6
Last Quarter
Dec 13
New
Dec 19
First Quarter
Dec 28
Full

Hourly Weather History & Observations

Time (CST) Temp. Dew Point Humidity Pressure Visibility Wind Dir Wind Speed Gust Speed Precip Events Conditions
12:15 AM 59.0 °F 50.0 °F 72% 30.15 in 10.0 mi South 10.4 mph 19.6 mph N/A   Overcast
12:35 AM 59.0 °F 50.0 °F 72% 30.16 in 10.0 mi South 9.2 mph - N/A   Overcast
12:55 AM 59.0 °F 50.0 °F 72% 30.15 in 10.0 mi South 9.2 mph 16.1 mph N/A   Overcast
1:15 AM 59.0 °F 50.0 °F 72% 30.15 in 10.0 mi South 10.4 mph 20.7 mph N/A   Overcast
1:35 AM 59.0 °F 50.0 °F 72% 30.14 in 10.0 mi South 12.7 mph 19.6 mph N/A   Overcast
1:55 AM 59.0 °F 50.0 °F 72% 30.14 in 10.0 mi South 12.7 mph 19.6 mph N/A   Overcast
2:15 AM 59.0 °F 50.0 °F 72% 30.14 in 10.0 mi South 13.8 mph 21.9 mph N/A   Overcast
2:35 AM 59.0 °F 50.0 °F 72% 30.14 in 10.0 mi South 11.5 mph 20.7 mph N/A   Overcast
2:55 AM 59.0 °F 50.0 °F 72% 30.14 in 10.0 mi South 11.5 mph 20.7 mph N/A   Overcast
3:15 AM 59.0 °F 50.0 °F 72% 30.14 in 10.0 mi South 11.5 mph 20.7 mph N/A   Overcast
3:35 AM 59.0 °F 50.0 °F 72% 30.13 in 10.0 mi South 12.7 mph 19.6 mph N/A   Overcast
3:55 AM 59.0 °F 51.8 °F 77% 30.13 in 10.0 mi SSW 10.4 mph 21.9 mph N/A   Overcast
4:15 AM 59.0 °F 51.8 °F 77% 30.13 in 10.0 mi South 13.8 mph 19.6 mph N/A   Scattered Clouds
4:35 AM 59.0 °F 51.8 °F 77% 30.13 in 10.0 mi SSW 12.7 mph 19.6 mph N/A   Scattered Clouds
4:55 AM 59.0 °F 51.8 °F 77% 30.13 in 10.0 mi SSW 11.5 mph 19.6 mph N/A   Mostly Cloudy
5:15 AM 59.0 °F 53.6 °F 82% 30.13 in 10.0 mi SSW 9.2 mph 18.4 mph N/A   Mostly Cloudy
5:35 AM 59.0 °F 53.6 °F 82% 30.13 in 10.0 mi SSW 10.4 mph - N/A   Partly Cloudy
5:55 AM 59.0 °F 53.6 °F 82% 30.14 in 10.0 mi South 11.5 mph 17.3 mph N/A   Partly Cloudy
6:15 AM 59.0 °F 53.6 °F 82% 30.14 in 10.0 mi SSW 9.2 mph 18.4 mph N/A   Partly Cloudy
6:35 AM 59.0 °F 53.6 °F 82% 30.15 in 10.0 mi South 10.4 mph 17.3 mph N/A   Scattered Clouds
6:55 AM 59.0 °F 55.4 °F 88% 30.15 in 10.0 mi SSW 9.2 mph 18.4 mph N/A   Scattered Clouds
7:15 AM 59.0 °F 55.4 °F 88% 30.15 in 10.0 mi SSW 12.7 mph 19.6 mph N/A   Scattered Clouds
7:35 AM 59.0 °F 55.4 °F 88% 30.16 in 10.0 mi SSW 15.0 mph 21.9 mph N/A   Mostly Cloudy
7:55 AM 60.8 °F 55.4 °F 82% 30.17 in 10.0 mi SSW 12.7 mph 21.9 mph N/A   Mostly Cloudy
8:15 AM 60.8 °F 55.4 °F 82% 30.17 in 10.0 mi SSW 11.5 mph 19.6 mph N/A   Mostly Cloudy
8:35 AM 62.6 °F 55.4 °F 77% 30.17 in 10.0 mi SSW 10.4 mph 23.0 mph N/A   Mostly Cloudy
8:55 AM 62.6 °F 57.2 °F 82% 30.17 in 10.0 mi SSW 10.4 mph 21.9 mph N/A   Mostly Cloudy
9:15 AM 62.6 °F 57.2 °F 82% 30.17 in 10.0 mi SSW 15.0 mph 21.9 mph N/A   Scattered Clouds
9:35 AM 64.4 °F 57.2 °F 77% 30.17 in 10.0 mi SW 12.7 mph 18.4 mph N/A   Mostly Cloudy
10:15 AM 64.4 °F 57.2 °F 77% 30.18 in 10.0 mi SW 19.6 mph 26.5 mph N/A   Overcast
10:35 AM 64.4 °F 57.2 °F 77% 30.18 in 10.0 mi SW 15.0 mph 24.2 mph N/A   Overcast
10:55 AM 64.4 °F 57.2 °F 77% 30.17 in 10.0 mi SW 16.1 mph 24.2 mph N/A   Overcast
11:15 AM 64.4 °F 57.2 °F 77% 30.17 in 10.0 mi SW 11.5 mph 19.6 mph N/A   Overcast
11:35 AM 64.4 °F 57.2 °F 77% 30.15 in 10.0 mi SSW 13.8 mph 23.0 mph N/A   Overcast
11:55 AM 64.4 °F 57.2 °F 77% 30.15 in 10.0 mi SSW 11.5 mph 21.9 mph N/A   Overcast
12:15 PM 64.4 °F 57.2 °F 77% 30.14 in 10.0 mi SSW 10.4 mph 18.4 mph N/A   Overcast
12:35 PM 64.4 °F 57.2 °F 77% 30.14 in 10.0 mi SSW 9.2 mph 16.1 mph N/A   Overcast
12:55 PM 64.4 °F 57.2 °F 77% 30.13 in 10.0 mi SSW 11.5 mph 17.3 mph N/A   Overcast
1:15 PM 64.4 °F 57.2 °F 77% 30.13 in 10.0 mi SW 12.7 mph 19.6 mph N/A   Overcast
1:35 PM 64.4 °F 57.2 °F 77% 30.12 in 10.0 mi SSW 11.5 mph 20.7 mph N/A   Overcast
1:55 PM 64.4 °F 57.2 °F 77% 30.12 in 10.0 mi SSW 11.5 mph 17.3 mph N/A   Overcast
2:15 PM 64.4 °F 57.2 °F 77% 30.11 in 10.0 mi SSW 5.8 mph 18.4 mph N/A   Overcast
2:35 PM 64.4 °F 57.2 °F 77% 30.11 in 10.0 mi SSW 8.1 mph - N/A   Overcast
2:55 PM 64.4 °F 57.2 °F 77% 30.11 in 10.0 mi SSW 8.1 mph - N/A   Overcast
3:15 PM 64.4 °F 57.2 °F 77% 30.11 in 10.0 mi SSW 9.2 mph 16.1 mph N/A   Overcast
3:35 PM 64.4 °F 59.0 °F 83% 30.11 in 10.0 mi SSW 9.2 mph 16.1 mph N/A   Overcast
3:55 PM 64.4 °F 59.0 °F 83% 30.12 in 10.0 mi SSW 10.4 mph 17.3 mph N/A   Overcast
4:15 PM 64.4 °F 59.0 °F 83% 30.12 in 10.0 mi SSW 6.9 mph - N/A   Overcast
4:35 PM 64.4 °F 59.0 °F 83% 30.12 in 10.0 mi South 8.1 mph - N/A   Overcast
4:55 PM 64.4 °F 59.0 °F 83% 30.12 in 10.0 mi SSW 10.4 mph - N/A   Overcast
5:15 PM 64.4 °F 59.0 °F 83% 30.13 in 10.0 mi SSW 10.4 mph 16.1 mph N/A   Overcast
5:35 PM 64.4 °F 59.0 °F 83% 30.13 in 10.0 mi SSW 10.4 mph - N/A   Overcast
5:55 PM 64.4 °F 59.0 °F 83% 30.13 in 10.0 mi South 6.9 mph - N/A   Overcast
6:15 PM 64.4 °F 59.0 °F 83% 30.13 in 10.0 mi South 10.4 mph - N/A   Overcast
6:35 PM 64.4 °F 59.0 °F 83% 30.13 in 10.0 mi South 9.2 mph - N/A   Overcast
6:55 PM 64.4 °F 59.0 °F 83% 30.13 in 10.0 mi South 10.4 mph - N/A   Overcast
7:15 PM 64.4 °F 59.0 °F 83% 30.13 in 10.0 mi South 11.5 mph - N/A   Overcast
7:35 PM 64.4 °F 59.0 °F 83% 30.13 in 10.0 mi South 9.2 mph - N/A   Overcast
7:55 PM 64.4 °F 59.0 °F 83% 30.13 in 10.0 mi South 9.2 mph 16.1 mph N/A   Overcast
8:15 PM 64.4 °F 59.0 °F 83% 30.13 in 10.0 mi South 10.4 mph 16.1 mph N/A   Overcast
8:35 PM 64.4 °F 57.2 °F 77% 30.13 in 10.0 mi South 11.5 mph 18.4 mph N/A   Overcast
8:55 PM 62.6 °F 57.2 °F 82% 30.14 in 10.0 mi South 9.2 mph - N/A   Mostly Cloudy
9:15 PM 62.6 °F 57.2 °F 82% 30.14 in 10.0 mi South 8.1 mph - N/A   Mostly Cloudy
9:35 PM 62.6 °F 57.2 °F 82% 30.14 in 10.0 mi South 9.2 mph - N/A   Mostly Cloudy
9:55 PM 62.6 °F 57.2 °F 82% 30.14 in 10.0 mi South 8.1 mph - N/A   Partly Cloudy
10:15 PM 62.6 °F 57.2 °F 82% 30.14 in 10.0 mi South 6.9 mph - N/A   Clear
10:35 PM 62.6 °F 57.2 °F 82% 30.14 in 10.0 mi South 6.9 mph - N/A   Partly Cloudy
10:55 PM 62.6 °F 57.2 °F 82% 30.14 in 10.0 mi South 6.9 mph - N/A   Partly Cloudy
11:15 PM 60.8 °F 57.2 °F 88% 30.14 in 10.0 mi South 6.9 mph - N/A   Clear
11:35 PM 60.8 °F 57.2 °F 88% 30.15 in 10.0 mi South 8.1 mph - N/A   Clear
11:55 PM 60.8 °F 57.2 °F 88% 30.14 in 10.0 mi South 8.1 mph - N/A   Clear